User: anonymous
Location: Caltech
(34.1382°N, 118.1253°W)
Time: 17:50:13
(UTC-07:00)
Language:

Cosmos 2322 - Orbit

View from above orbital plane
View from above orbital plane
View from above satellite
View from above satellite

Ground track
Ground track

The orbit data is extracted from the following two-line orbital elements,

1 23704U 95058A   14105.79243568 -.00000256  00000-0 -11100-3 0  9911
2 23704 070.9852 311.5213 0007873 031.6109 028.1982 14.13239444952179
Epoch (UTC): 15 April 2014 19:01:06
Eccentricity: 0.0007873
inclination: 70.9852°
perigee height: 842 km
apogee height: 854 km
right ascension of ascending node: 311.5213°
argument of perigee: 31.6109°
revolutions per day: 14.13239444
mean anomaly at epoch: 28.1982°
orbit number at epoch: 95217

The dashed part of the orbit path shows where the satellite is in the earth's shadow,  

DLR